Location: Asheville, NC
(35.6000°N, 82.5500°W)
Time: 06:04:24
(UTC-04:00)

Vanguard 1 - Pass Details

Date: 11 December 2017
Orbit: 650 x 3833 km, 34.2° (Epoch: 22 July)

Event Time Altitude Azimuth Distance (km) Brightness Sun altitude
Rises 14:32:04 0° 280° (W) 6,373 14.5 23.9°
Reaches altitude 10° 14:37:02 10° 278° (W) 4,842 14.0 23.4°
Maximum altitude 14:48:58 67° 199° (SSW) 1,471 11.8 22.0°
Drops below altitude 10° 14:55:24 10° 118° (ESE) 2,706 12.3 21.2°
Sets 14:57:27 0° 115° (ESE) 3,444 12.7 21.0°
